EA4BCR Weather Reports


Display with metric or nautical units.
time (UTC)temp
F
wind
direction
speed
MPH
gust
MPH
rain 1hr
in
rain 24hr
in
rain mn
in
humidity
%
barometer
mb
20260503230052 59 0.0 0.0 0.00 0.00 0.00 10 1012.9
20260503225052 59 0.0 0.0 0.00 0.00 0.00 10 1013.0
20260503224052 59 0.0 0.0 0.00 0.00 0.00 10 1013.1
20260503223052 59 0.0 0.0 0.00 0.00 0.00 10 1013.1
20260503222053 59 0.0 0.0 0.00 0.00 0.00 10 1013.2
20260503221052 59 0.0 0.0 0.00 0.00 0.00 10 1013.2
20260503220052 61 0.0 0.0 0.00 0.00 0.00 10 1012.7
20260503215052 60 0.0 0.0 0.00 0.00 0.00 10 1012.7
20260503214052 61 0.0 0.0 0.00 0.00 0.00 10 1012.6
20260503213052 60 0.0 0.0 0.00 0.00 0.00 10 1012.8
20260503212052 60 0.0 0.0 0.00 0.00 0.00 10 1012.9
20260503211052 60 0.0 0.0 0.00 0.00 0.00 10 1012.8
20260503210052 60 0.0 0.0 0.00 0.00 0.00 98 1012.6
20260503205052 61 0.0 0.0 0.00 0.00 0.00 10 1012.5
20260503204052 59 0.0 0.0 0.00 0.00 0.00 10 1012.6
20260503203052 59 0.0 0.0 0.00 0.00 0.00 10 1012.7
20260503202052 59 0.0 0.0 0.00 0.00 0.00 10 1012.4
20260503200654 59 0.0 0.0 0.00 0.00 0.00 10 1012.4
20260503195654 64 0.0 0.0 0.00 0.00 0.00 88 1011.0
20260503194655 63 0.0 0.0 0.00 0.00 0.00 89 1010.7
20260503193654 63 0.0 0.0 0.00 0.00 0.00 92 1010.8
20260503192654 64 0.0 0.0 0.00 0.00 0.00 81 1010.5
20260503191654 65 0.0 0.0 0.00 0.00 0.00 78 1010.3
20260503190654 65 0.0 0.0 0.00 0.00 0.00 73 1010.1
20260503185656 65 0.0 0.0 0.00 0.00 0.00 76 1010.0
20260503184654 66 0.0 0.0 0.00 0.00 0.00 73 1009.6
20260503183654 66 0.0 0.0 0.00 0.00 0.00 67 1009.5
20260503182654 67 0.0 0.0 0.00 0.00 0.00 65 1009.4
20260503181654 67 0.0 0.0 0.00 0.00 0.00 66 1009.3
20260503180654 66 0.0 0.0 0.00 0.00 0.00 60 1009.4
20260503175654 66 0.0 0.0 0.00 0.00 0.00 55 1009.3
20260503174654 67 0.0 0.0 0.00 0.00 0.00 51 1009.3
20260503173654 68 0.0 0.0 0.00 0.00 0.00 52 1008.9
20260503172654 68 0.0 0.0 0.00 0.00 0.00 50 1009.0
20260503171655 68 0.0 0.0 0.00 0.00 0.00 50 1008.7
20260503170654 69 0.0 0.0 0.00 0.00 0.00 49 1008.5
20260503150655 69 0.0 0.0 0.00 0.00 0.00 92 1009.0
20260503130654 64 0.0 0.0 0.00 0.00 0.00 10 1011.4
20260503110654 62 0.0 0.0 0.00 0.00 0.00 10 1013.0
20260503080654 61 0.0 0.0 0.00 0.00 0.00 10 1013.7
20260503072654 59 0.0 0.0 0.00 0.00 0.00 10 1014.0
20260503071654 61 0.0 0.0 0.00 0.00 0.00 10 1013.4
20260503070654 61 0.0 0.0 0.00 0.00 0.00 10 1013.8
20260503054653 58 0.0 0.0 0.00 0.00 0.00 10 1014.3
20260503053654 60 0.0 0.0 0.00 0.00 0.00 10 1013.8
20260503052654 60 0.0 0.0 0.00 0.00 0.00 10 1013.6
20260503051653 60 0.0 0.0 0.00 0.00 0.00 10 1013.7
20260503050654 59 0.0 0.0 0.00 0.00 0.00 10 1014.1
20260503045654 59 0.0 0.0 0.00 0.00 0.00 10 1013.8
20260503044653 59 0.0 0.0 0.00 0.00 0.00 10 1013.9
20260503043653 60 0.0 0.0 0.00 0.00 0.00 10 1013.7
20260503042654 60 0.0 0.0 0.00 0.00 0.00 10 1013.8
20260503041654 60 0.0 0.0 0.00 0.00 0.00 10 1013.8
20260503040654 61 0.0 0.0 0.00 0.00 0.00 10 1013.7
20260503035654 61 0.0 0.0 0.00 0.00 0.00 10 1013.7
20260503034653 60 0.0 0.0 0.00 0.00 0.00 10 1014.1
20260503033654 62 0.0 0.0 0.00 0.00 0.00 10 1013.9
20260503032654 61 0.0 0.0 0.00 0.00 0.00 10 1014.1
20260503031654 61 0.0 0.0 0.00 0.00 0.00 10 1014.3
20260503030653 61 0.0 0.0 0.00 0.00 0.00 10 1014.3
20260503025653 61 0.0 0.0 0.00 0.00 0.00 10 1014.0
20260503024653 60 0.0 0.0 0.00 0.00 0.00 10 1014.4
20260503023654 61 0.0 0.0 0.00 0.00 0.00 10 1014.3
20260503022654 62 0.0 0.0 0.00 0.00 0.00 10 1014.0
20260503021653 61 0.0 0.0 0.00 0.00 0.00 10 1014.2
20260503020653 62 0.0 0.0 0.00 0.00 0.00 10 1014.1
20260503015653 62 0.0 0.0 0.00 0.00 0.00 10 1014.1
20260503014653 61 0.0 0.0 0.00 0.00 0.00 10 1014.2
20260503013653 62 0.0 0.0 0.00 0.00 0.00 10 1014.1
20260503012653 62 0.0 0.0 0.00 0.00 0.00 10 1014.2
20260503011653 62 0.0 0.0 0.00 0.00 0.00 10 1014.4
20260503010653 62 0.0 0.0 0.00 0.00 0.00 10 1014.3
20260503005653 62 0.0 0.0 0.00 0.00 0.00 10 1014.6
20260503004653 62 0.0 0.0 0.00 0.00 0.00 10 1014.7
20260503003653 62 0.0 0.0 0.00 0.00 0.00 10 1014.7
20260503002653 62 0.0 0.0 0.00 0.00 0.00 10 1014.8
20260503001653 62 0.0 0.0 0.00 0.00 0.00 10 1014.9
20260503000653 62 0.0 0.0 0.00 0.00 0.00 10 1015.1
20260502235653 62 0.0 0.0 0.00 0.00 0.00 10 1015.1
20260502234653 62 0.0 0.0 0.00 0.00 0.00 10 1015.2
20260502233653 62 0.0 0.0 0.00 0.00 0.00 10 1015.2
20260502232653 62 0.0 0.0 0.00 0.00 0.00 10 1015.4
20260502231654 62 0.0 0.0 0.00 0.00 0.00 10 1015.5
20260502230653 61 0.0 0.0 0.00 0.00 0.00 10 1015.6